Regional Weather Roundup
Issued by NWS

Home | Current Version | Previous Version | Text Only | Print | Product List | Glossary Off
Versions: 1 2 3 4 5 6 7 8 9 10 11 12 13 14 15 16 17 18 19 20 21 22 23 24 25 26 27 28 29 30 31 32 33 34 35 36 37 38 39 40 41 42 43 44 45 46 47 48 49 50

000
ASUS43 KOAX 200202
RWRNE

WEATHER ROUNDUP FOR NEBRASKA
NATIONAL WEATHER SERVICE OMAHA NE
900 PM CDT TUE AUG 19 2014

NOTES: SATELLITE DATA IS BEING USED TO AUGMENT CLOUD COVER ABOVE
       12000 FEET.
       "FAIR" INDICATES FEW OR NO CLOUDS BELOW 12,000 FEET WITH NO
       SIGNIFICANT WEATHER AND/OR OBSTRUCTIONS TO VISIBILITY.

  * THESE STATIONS DO NOT REPORT WEATHER SUCH AS RAIN...SNOW OR FOG.

NEZ001>004-019>022-054>056-200300-
NEBRASKA PANHANDLE

CITY           SKY/WX    TMP DP  RH WIND       PRES   REMARKS
SCOTTSBLUFF    MOCLDY    70  59  68 SE5       29.82S
ALLIANCE       CLOUDY    74  50  42 S33G43    29.82F
CHADRON        CLOUDY    85  45  24 S22G28    29.71R
KIMBALL        PTCLDY    70  51  52 SE17      29.89R THUNDER
SIDNEY         CLOUDY    76  52  43 S18G45    29.92R THUNDER
$$

NEZ057>060-069>072-079>082-200300-
SOUTHWEST NEBRASKA

CITY           SKY/WX    TMP DP  RH WIND       PRES   REMARKS
NORTH PLATTE   CLOUDY    76  68  76 E10       29.77R
IMPERIAL       PTCLDY    83  63  50 SE14      29.76R
LEXINGTON      PTCLDY    78  70  75 E9        29.77R
MCCOOK         PTCLDY    82  63  52 E6        29.74S
OGALLALA       CLOUDY    78  61  55 E7        29.77S THUNDER
$$

NEZ005>010-023>029-035>040-094-200300-
NORTH CENTRAL NEBRASKA

CITY           SKY/WX    TMP DP  RH WIND       PRES   REMARKS
VALENTINE      PTCLDY    81  65  58 SE14      29.77R
AINSWORTH      PTCLDY    75  65  70 SE8       29.80R
BROKEN BOW     CLEAR     77  70  79 SE8       29.79S
O`NEILL        MOCLDY    76  67  74 SE6       29.80S
ORD            PTCLDY    77  69  76 SE7       29.77S
THEDFORD       PTCLDY    78  65  65 SE7       29.80R
$$

NEZ041-046>049-061>064-073>077-083>087-200300-
SOUTH CENTRAL NEBRASKA

CITY           SKY/WX    TMP DP  RH WIND       PRES   REMARKS
GRAND ISLAND   CLEAR     78  69  73 E7        29.78S
AURORA         PTCLDY    77  73  87 E6        29.79R
HASTINGS       CLEAR     80  68  66 SE10      29.78R
HEBRON         CLEAR     77  68  73 SE6       29.78R
HOLDREGE       CLEAR     77  67  72 SE10      29.77S
KEARNEY *      CLEAR     75  68  78 E7        29.79R
$$

NEZ011>018-030>034-042>045-200300-
NORTHEAST NEBRASKA

CITY           SKY/WX    TMP DP  RH WIND       PRES   REMARKS
NORFOLK        MOCLDY    75  66  73 SE6       29.79S
ALBION         MOCLDY    76  67  74 SE6       29.79S
BLAIR          CLEAR     76  66  70 E6        29.80R
COLUMBUS *     PTCLDY    73  70  88 E6        29.80R
FREMONT        PTCLDY    80  64  57 E5        29.80R
TEKAMAH        CLEAR     74  68  81 E5        29.79R
WAYNE          PTCLDY    71  68  90 SE3       29.80S
$$

NEZ050>053-065>068-078-088>093-200300-
SOUTHEAST NEBRASKA

CITY           SKY/WX    TMP DP  RH WIND       PRES   REMARKS
LINCOLN        CLEAR     81  68  64 NE9       29.78R
OMAHA EPPLEY   PTCLDY    80  65  59 E6        29.78F
BEATRICE       CLEAR     82  72  72 SE5       29.78R
FALLS CITY     CLEAR     78  74  87 E6        29.78R
NEBRASKA CITY  CLEAR     78  70  74 SE5       29.79S
PLATTSMOUTH    CLEAR     77  69  76 E3        29.79S
$$

NEZ044-045-051>053-067-200300-
OMAHA AREA

CITY           SKY/WX    TMP DP  RH WIND       PRES   REMARKS
OMAHA EPPLEY   PTCLDY    80  65  59 E6        29.78F
BLAIR          CLEAR     76  66  70 E6        29.80R
FREMONT        PTCLDY    80  64  57 E5        29.80R
MILLARD        CLEAR     81  68  65 CALM      29.78S
OFFUTT AFB     CLEAR     75  73  93 E5        29.78S
PLATTSMOUTH    CLEAR     77  69  76 E3        29.79S
WAHOO          FAIR      75  68  77 E5        29.79R
$$



USA.gov is the U.S. government's official web portal to all federal, state and local government web resources and services.